Simultaneous Nadir Overpasses (SNOs) Predictions

Prediction of SNOs between METOP-B and TERRA Satellite Orbit:

Table of predicted SNOs for the next 14.0 days since TLE Epoch: 10/19/2024
Index Date (METOP-B) Time (METOP-B) Lat,Lon (METOP-B) SZA (METOP-B ) Date (TERRA) Time (TERRA) Lat,Lon (TERRA) SZA (TERRA ) Distance(km) Time Diff (sec)
1 10/21/2024 16:21:39 74.63, -72.81 85.61 10/21/2024 16:22:52 74.32, -70.94 85.27 65.63 73
2 10/21/2024 17:10:19 -79.74, 118.13 88.69 10/21/2024 17:10:17 -79.73, 117.99 88.71 3.09 2
3 10/24/2024 06:49:52 79.53, 91.50 91.92 10/24/2024 06:50:50 79.53, 91.46 91.93 0.83 58
4 10/24/2024 07:40:28 -79.70, -99.74 87.83 10/24/2024 07:40:07 -79.71, -99.67 87.83 1.46 21
5 10/26/2024 21:19:59 79.54,-125.99 92.82 10/26/2024 21:20:37 79.55,-125.92 92.84 1.58 38
6 10/26/2024 22:10:35 -79.71, 42.79 86.93 10/26/2024 22:09:54 -79.72, 42.94 86.92 3.07 41
7 10/29/2024 11:50:04 79.59, 16.91 93.76 10/29/2024 11:50:21 79.60, 16.96 93.78 1.08 17
8 10/29/2024 12:40:39 -79.80,-174.00 85.93 10/29/2024 12:39:37 -79.81,-173.92 85.94 1.74 62
9 11/01/2024 01:29:54 -78.71, -14.21 86.57 11/01/2024 01:31:08 -78.63, -13.91 86.62 11.23 74



Historial Predications of SNOs between METOP-B and TERRA
